Time,TemperatureF,DewpointF,PressureIn,WindDirection,WindDirectionDegrees,WindSpeedMPH,WindSpeedGustMPH,Humidity,HourlyPrecipIn,Conditions,Clouds,dailyrainin,SoftwareType,DateUTC
2013-02-06 00:00:00,23.8,11.5,29.93,NW,312,0.0,0.0,59,0.00,OVC,,0.00,WeatherDisplay:10.37,2013-02-06 05:00:00,
2013-02-06 00:05:00,24.2,13.0,29.93,NW,312,0.0,0.0,62,0.00,OVC,,0.00,WeatherDisplay:10.37,2013-02-06 05:05:00,
2013-02-06 00:10:00,24.2,13.1,29.93,NW,312,0.0,0.0,62,0.00,OVC,,0.00,WeatherDisplay:10.37,2013-02-06 05:10:00,
2013-02-06 00:15:00,23.5,12.3,29.93,NW,312,0.0,0.0,62,0.00,OVC,,0.00,WeatherDisplay:10.37,2013-02-06 05:15:00,
2013-02-06 00:20:00,22.3,11.3,29.93,NW,312,0.0,0.0,62,0.00,OVC,,0.00,WeatherDisplay:10.37,2013-02-06 05:20:00,
2013-02-06 00:25:00,21.7,10.7,29.93,NW,312,0.0,0.0,62,0.00,OVC,,0.00,WeatherDisplay:10.37,2013-02-06 05:25:00,
2013-02-06 00:30:00,21.4,10.4,29.93,NW,312,0.0,0.0,62,0.00,OVC,,0.00,WeatherDisplay:10.37,2013-02-06 05:30:00,
2013-02-06 00:35:00,21.5,10.5,29.93,NW,312,0.0,0.0,62,0.00,OVC,,0.00,WeatherDisplay:10.37,2013-02-06 05:35:00,
2013-02-06 00:40:00,21.6,10.6,29.93,NW,312,0.0,0.0,62,0.00,OVC,,0.00,WeatherDisplay:10.37,2013-02-06 05:40:00,
2013-02-06 00:45:00,21.5,10.5,29.93,NW,312,0.0,0.0,62,0.00,OVC,,0.00,WeatherDisplay:10.37,2013-02-06 05:45:00,
2013-02-06 00:50:00,22.0,11.0,29.93,NW,312,0.0,0.0,62,0.00,OVC,,0.00,WeatherDisplay:10.37,2013-02-06 05:50:00,
2013-02-06 00:55:00,23.3,12.2,29.93,NW,312,0.0,0.0,62,0.00,OVC,,0.00,WeatherDisplay:10.37,2013-02-06 05:55:00,
2013-02-06 01:00:00,23.3,12.2,29.93,NW,312,0.0,0.0,62,0.00,OVC,,0.00,WeatherDisplay:10.37,2013-02-06 06:00:00,
2013-02-06 01:05:00,23.1,15.0,29.93,NW,312,0.0,0.0,71,0.00,-SN,,0.00,WeatherDisplay:10.37,2013-02-06 06:05:00,
2013-02-06 01:10:00,23.4,15.4,29.93,NW,312,0.0,0.0,71,0.00,-SN,,0.00,WeatherDisplay:10.37,2013-02-06 06:10:00,
2013-02-06 01:15:00,22.6,14.6,29.93,NW,312,0.0,0.0,71,0.00,-SN,,0.00,WeatherDisplay:10.37,2013-02-06 06:15:00,
2013-02-06 01:20:00,22.9,14.9,29.93,NW,312,0.0,0.0,71,0.00,-SN,,0.00,WeatherDisplay:10.37,2013-02-06 06:20:00,
2013-02-06 01:25:00,22.7,14.7,29.93,NW,312,0.0,0.0,71,0.00,-SN,,0.00,WeatherDisplay:10.37,2013-02-06 06:25:00,
2013-02-06 01:30:00,22.9,14.9,29.93,NW,312,0.0,0.0,71,0.00,-SN,,0.00,WeatherDisplay:10.37,2013-02-06 06:30:00,
2013-02-06 01:35:00,21.8,13.8,29.93,NW,312,0.0,0.0,71,0.00,-SN,,0.00,WeatherDisplay:10.37,2013-02-06 06:35:00,
2013-02-06 01:40:00,21.9,13.9,29.93,NW,312,0.0,0.0,71,0.00,-SN,,0.00,WeatherDisplay:10.37,2013-02-06 06:40:00,
2013-02-06 01:45:00,21.7,13.7,29.93,NW,312,0.0,0.0,71,0.00,-SN,,0.00,WeatherDisplay:10.37,2013-02-06 06:45:00,
2013-02-06 01:50:00,22.3,14.3,29.93,NW,312,0.0,0.0,71,0.00,-SN,,0.00,WeatherDisplay:10.37,2013-02-06 06:50:00,
2013-02-06 01:55:00,24.1,16.0,29.93,NW,312,0.0,0.0,71,0.00,-SN,,0.00,WeatherDisplay:10.37,2013-02-06 06:55:00,
2013-02-06 02:00:00,23.6,15.6,29.93,NW,312,0.0,0.0,71,0.00,-SN,,0.00,WeatherDisplay:10.37,2013-02-06 07:00:00,
2013-02-06 02:05:00,23.7,19.6,29.93,NW,312,0.0,0.0,84,0.00,-SN,,0.00,WeatherDisplay:10.37,2013-02-06 07:05:00,
2013-02-06 02:10:00,23.6,19.5,29.93,NW,312,0.0,0.0,84,0.00,-SN,,0.00,WeatherDisplay:10.37,2013-02-06 07:10:00,
2013-02-06 02:15:00,23.2,19.1,29.94,NW,312,0.0,0.0,84,0.00,-SN,,0.00,WeatherDisplay:10.37,2013-02-06 07:15:00,
2013-02-06 02:20:00,22.6,18.5,29.93,NW,312,0.0,0.0,84,0.00,-SN,,0.00,WeatherDisplay:10.37,2013-02-06 07:20:00,
2013-02-06 02:25:00,22.7,18.6,29.93,NW,312,0.0,0.0,84,0.00,-SN,,0.00,WeatherDisplay:10.37,2013-02-06 07:25:00,
2013-02-06 02:30:00,24.0,19.9,29.93,NW,312,0.0,0.0,84,0.00,-SN,,0.00,WeatherDisplay:10.37,2013-02-06 07:30:00,
2013-02-06 02:35:00,24.0,20.1,29.93,NW,312,0.0,0.0,85,0.00,-SN,,0.00,WeatherDisplay:10.37,2013-02-06 07:35:00,
2013-02-06 02:40:00,24.3,20.4,29.93,NW,312,0.0,0.0,85,0.00,-SN,,0.00,WeatherDisplay:10.37,2013-02-06 07:40:00,
2013-02-06 02:45:00,24.3,20.5,29.93,NW,312,0.0,0.0,85,0.00,-SN,,0.00,WeatherDisplay:10.37,2013-02-06 07:45:00,
2013-02-06 02:50:00,24.3,20.4,29.93,NW,312,0.0,0.0,85,0.00,-SN,,0.00,WeatherDisplay:10.37,2013-02-06 07:50:00,
2013-02-06 02:55:00,24.2,20.3,29.93,NW,312,0.0,0.0,85,0.00,-SN,,0.00,WeatherDisplay:10.37,2013-02-06 07:55:00,
2013-02-06 03:00:00,24.1,20.3,29.93,NW,312,0.0,0.0,85,0.00,-SN,,0.00,WeatherDisplay:10.37,2013-02-06 08:00:00,
2013-02-06 03:05:00,24.4,21.1,29.93,NW,312,0.0,0.0,87,0.00,-SN,,0.00,WeatherDisplay:10.37,2013-02-06 08:05:00,
2013-02-06 03:10:00,24.7,21.4,29.93,NW,312,0.0,0.0,87,0.00,-SN,,0.00,WeatherDisplay:10.37,2013-02-06 08:10:00,
2013-02-06 03:15:00,22.4,19.2,29.93,NW,312,0.0,0.0,87,0.00,-SN,,0.00,WeatherDisplay:10.37,2013-02-06 08:15:00,
2013-02-06 03:20:00,21.6,18.3,29.93,NW,312,0.0,0.0,87,0.00,-SN,,0.00,WeatherDisplay:10.37,2013-02-06 08:20:00,
2013-02-06 03:25:00,21.7,18.4,29.93,NW,312,0.0,0.0,87,0.00,-SN,,0.00,WeatherDisplay:10.37,2013-02-06 08:25:00,
2013-02-06 03:30:00,21.5,18.3,29.93,NW,312,0.0,0.0,87,0.00,-SN,,0.00,WeatherDisplay:10.37,2013-02-06 08:30:00,
2013-02-06 03:35:00,22.4,20.4,29.93,NW,312,0.0,0.0,92,0.00,-SN,,0.00,WeatherDisplay:10.37,2013-02-06 08:35:00,
2013-02-06 03:40:00,22.8,20.8,29.93,NW,312,0.0,0.0,92,0.00,-SN,,0.00,WeatherDisplay:10.37,2013-02-06 08:40:00,
2013-02-06 03:45:00,22.4,20.5,29.93,NW,312,0.0,0.0,92,0.00,-SN,,0.00,WeatherDisplay:10.37,2013-02-06 08:45:00,
2013-02-06 03:50:00,23.1,21.1,29.93,NW,312,0.0,0.0,92,0.00,-SN,,0.00,WeatherDisplay:10.37,2013-02-06 08:50:00,
2013-02-06 03:55:00,23.2,21.2,29.93,NW,312,0.0,0.0,92,0.00,-SN,,0.00,WeatherDisplay:10.37,2013-02-06 08:55:00,
2013-02-06 04:00:00,23.3,21.4,29.93,NW,312,0.0,0.0,92,0.00,-SN,,0.00,WeatherDisplay:10.37,2013-02-06 09:00:00,
2013-02-06 04:05:00,23.9,21.6,29.92,NW,312,0.0,0.0,91,0.00,-SN,,0.00,WeatherDisplay:10.37,2013-02-06 09:05:00,
2013-02-06 04:10:00,23.9,21.6,29.92,NW,312,0.0,0.0,91,0.00,-SN,,0.00,WeatherDisplay:10.37,2013-02-06 09:10:00,
2013-02-06 04:15:00,24.2,21.9,29.93,NW,312,0.0,0.0,91,0.00,-SN,,0.00,WeatherDisplay:10.37,2013-02-06 09:15:00,
2013-02-06 04:20:00,24.2,22.0,29.93,NW,312,0.0,0.0,91,0.00,-SN,,0.00,WeatherDisplay:10.37,2013-02-06 09:20:00,
2013-02-06 04:25:00,23.7,21.5,29.93,NW,312,0.0,0.0,91,0.00,-SN,,0.00,WeatherDisplay:10.37,2013-02-06 09:25:00,
2013-02-06 04:30:00,23.7,21.4,29.93,NW,312,0.0,0.0,91,0.00,-SN,,0.00,WeatherDisplay:10.37,2013-02-06 09:30:00,
2013-02-06 04:35:00,21.9,18.1,29.93,NW,312,0.0,0.0,85,0.00,-SN,,0.00,WeatherDisplay:10.37,2013-02-06 09:35:00,
2013-02-06 04:40:00,22.4,18.5,29.93,NW,312,0.0,0.0,85,0.00,-SN,,0.00,WeatherDisplay:10.37,2013-02-06 09:40:00,
2013-02-06 04:45:00,23.2,19.3,29.93,NW,312,0.0,0.0,85,0.00,-SN,,0.00,WeatherDisplay:10.37,2013-02-06 09:45:00,
2013-02-06 04:50:00,23.2,19.4,29.93,NW,312,0.0,0.0,85,0.00,-SN,,0.00,WeatherDisplay:10.37,2013-02-06 09:50:00,
2013-02-06 04:55:00,23.4,19.6,29.94,NW,312,0.0,0.0,85,0.00,-SN,,0.00,WeatherDisplay:10.37,2013-02-06 09:55:00,
2013-02-06 05:05:00,24.0,21.7,29.94,NW,312,0.0,0.0,91,0.00,-SN,,0.00,WeatherDisplay:10.37,2013-02-06 10:05:00,
2013-02-06 05:10:00,23.2,21.0,29.94,NW,312,0.0,0.0,91,0.00,-SN,,0.00,WeatherDisplay:10.37,2013-02-06 10:10:00,
2013-02-06 05:20:00,23.2,20.9,29.94,NW,312,0.0,0.0,91,0.00,-SN,,0.00,WeatherDisplay:10.37,2013-02-06 10:20:00,
2013-02-06 05:25:00,21.8,19.6,29.94,NW,312,0.0,0.0,91,0.00,-SN,,0.00,WeatherDisplay:10.37,2013-02-06 10:25:00,
2013-02-06 05:30:00,22.6,20.4,29.95,NW,312,0.0,0.0,91,0.00,-SN,,0.00,WeatherDisplay:10.37,2013-02-06 10:30:00,
2013-02-06 05:35:00,23.3,21.0,29.95,NW,312,0.0,0.0,91,0.00,-SN,,0.00,WeatherDisplay:10.37,2013-02-06 10:35:00,
2013-02-06 05:40:00,23.6,21.4,29.95,NW,312,0.0,0.0,91,0.00,-SN,,0.00,WeatherDisplay:10.37,2013-02-06 10:40:00,
2013-02-06 05:50:00,22.4,20.2,29.95,NW,312,0.0,0.0,91,0.00,-SN,,0.00,WeatherDisplay:10.37,2013-02-06 10:50:00,
2013-02-06 05:55:00,22.1,19.9,29.95,NW,312,0.0,0.0,91,0.00,-SN,,0.00,WeatherDisplay:10.37,2013-02-06 10:55:00,
2013-02-06 06:00:00,22.6,20.4,29.95,NW,312,0.0,0.0,91,0.00,-SN,,0.00,WeatherDisplay:10.37,2013-02-06 11:00:00,
2013-02-06 06:05:00,22.9,20.7,29.95,NW,312,0.0,0.0,91,0.00,OVC,,0.00,WeatherDisplay:10.37,2013-02-06 11:05:00,
2013-02-06 06:10:00,21.1,18.9,29.95,NW,312,0.0,0.0,91,0.00,OVC,,0.00,WeatherDisplay:10.37,2013-02-06 11:10:00,
2013-02-06 06:15:00,22.2,20.0,29.96,NW,312,0.0,0.0,91,0.00,OVC,,0.00,WeatherDisplay:10.37,2013-02-06 11:15:00,
2013-02-06 06:20:00,22.9,20.6,29.96,NW,312,0.0,0.0,91,0.00,OVC,,0.00,WeatherDisplay:10.37,2013-02-06 11:20:00,
2013-02-06 06:25:00,23.0,20.8,29.96,NW,312,0.0,0.0,91,0.00,OVC,,0.00,WeatherDisplay:10.37,2013-02-06 11:25:00,
2013-02-06 06:30:00,22.5,20.2,29.96,NW,312,0.0,0.0,91,0.00,OVC,,0.00,WeatherDisplay:10.37,2013-02-06 11:30:00,
2013-02-06 06:35:00,22.5,20.3,29.96,NW,312,0.0,0.0,91,0.00,OVC,,0.00,WeatherDisplay:10.37,2013-02-06 11:35:00,
2013-02-06 06:40:00,23.7,21.5,29.97,NW,312,0.0,0.0,91,0.00,OVC,,0.00,WeatherDisplay:10.37,2013-02-06 11:40:00,
2013-02-06 06:45:00,23.5,21.2,29.97,NW,312,0.0,0.0,91,0.00,OVC,,0.00,WeatherDisplay:10.37,2013-02-06 11:45:00,
2013-02-06 06:50:00,23.9,21.7,29.97,NW,312,0.0,0.0,91,0.00,OVC,,0.00,WeatherDisplay:10.37,2013-02-06 11:50:00,
2013-02-06 06:55:00,23.9,21.7,29.97,NW,312,0.0,0.0,91,0.00,OVC,,0.00,WeatherDisplay:10.37,2013-02-06 11:55:00,
2013-02-06 07:00:00,24.1,21.9,29.97,NW,312,0.0,0.0,91,0.00,OVC,,0.00,WeatherDisplay:10.37,2013-02-06 12:00:00,
2013-02-06 07:05:00,23.5,21.2,29.97,NW,312,0.0,0.0,91,0.00,OVC,,0.00,WeatherDisplay:10.37,2013-02-06 12:05:00,
2013-02-06 07:10:00,23.4,21.2,29.97,NW,312,0.0,0.0,91,0.00,OVC,,0.00,WeatherDisplay:10.37,2013-02-06 12:10:00,
2013-02-06 07:15:00,23.5,21.2,29.97,NW,312,0.0,0.0,91,0.00,OVC,,0.00,WeatherDisplay:10.37,2013-02-06 12:15:00,
2013-02-06 07:20:00,23.2,21.0,29.97,NW,312,0.0,0.0,91,0.00,OVC,,0.00,WeatherDisplay:10.37,2013-02-06 12:20:00,
2013-02-06 07:25:00,22.6,20.4,29.98,NW,312,0.0,0.0,91,0.00,OVC,,0.00,WeatherDisplay:10.37,2013-02-06 12:25:00,
2013-02-06 07:30:00,21.6,19.4,29.98,NW,312,0.0,0.0,91,0.00,OVC,,0.00,WeatherDisplay:10.37,2013-02-06 12:30:00,
2013-02-06 07:35:00,21.6,21.6,29.98,NW,312,0.0,0.0,100,0.00,-SN,,0.00,WeatherDisplay:10.37,2013-02-06 12:35:00,
2013-02-06 07:40:00,21.7,21.7,29.98,NW,312,0.0,0.0,100,0.00,-SN,,0.00,WeatherDisplay:10.37,2013-02-06 12:40:00,
2013-02-06 07:45:00,22.3,22.3,29.98,NW,312,0.0,0.0,100,0.00,-SN,,0.00,WeatherDisplay:10.37,2013-02-06 12:45:00,
2013-02-06 07:50:00,22.2,22.2,29.98,NW,312,0.0,0.0,100,0.00,-SN,,0.00,WeatherDisplay:10.37,2013-02-06 12:50:00,
2013-02-06 07:55:00,23.7,21.7,29.98,NW,312,0.0,0.0,92,0.00,OVC,,0.00,WeatherDisplay:10.37,2013-02-06 12:55:00,
2013-02-06 08:00:00,24.6,22.6,29.98,NW,312,0.0,0.0,92,0.00,OVC,,0.00,WeatherDisplay:10.37,2013-02-06 13:00:00,
2013-02-06 08:05:00,25.2,22.9,29.98,NW,312,0.0,0.0,91,0.00,OVC,,0.00,WeatherDisplay:10.37,2013-02-06 13:05:00,
2013-02-06 08:10:00,25.6,23.3,29.98,NW,312,0.0,0.0,91,0.00,OVC,,0.00,WeatherDisplay:10.37,2013-02-06 13:10:00,
2013-02-06 08:15:00,25.6,23.4,29.98,NW,312,0.0,0.0,91,0.00,OVC,,0.00,WeatherDisplay:10.37,2013-02-06 13:15:00,
2013-02-06 08:20:00,25.2,22.9,29.98,NW,312,0.0,0.0,91,0.00,OVC,,0.00,WeatherDisplay:10.37,2013-02-06 13:20:00,
2013-02-06 08:25:00,25.3,23.0,29.98,NW,312,0.0,0.0,91,0.00,OVC,,0.00,WeatherDisplay:10.37,2013-02-06 13:25:00,
2013-02-06 08:30:00,25.6,23.3,29.98,NW,312,0.0,0.0,91,0.00,OVC,,0.00,WeatherDisplay:10.37,2013-02-06 13:30:00,
2013-02-06 08:35:00,25.6,23.4,29.99,NW,312,0.0,0.0,91,0.00,OVC,,0.00,WeatherDisplay:10.37,2013-02-06 13:35:00,
2013-02-06 08:40:00,25.6,23.4,29.99,NW,312,0.0,0.0,91,0.00,OVC,,0.00,WeatherDisplay:10.37,2013-02-06 13:40:00,
2013-02-06 08:45:00,25.4,23.1,29.99,NW,312,0.0,0.0,91,0.00,OVC,,0.00,WeatherDisplay:10.37,2013-02-06 13:45:00,
2013-02-06 08:50:00,25.1,22.8,29.99,NW,312,0.0,0.0,91,0.00,OVC,,0.00,WeatherDisplay:10.37,2013-02-06 13:50:00,
2013-02-06 08:55:00,25.4,23.2,29.98,NW,312,0.0,0.0,91,0.00,OVC,,0.00,WeatherDisplay:10.37,2013-02-06 13:55:00,
2013-02-06 09:00:00,25.9,23.6,29.98,NW,312,0.0,0.0,91,0.00,OVC,,0.00,WeatherDisplay:10.37,2013-02-06 14:00:00,
2013-02-06 09:05:00,26.4,23.0,29.98,NW,312,0.0,0.0,87,0.00,OVC,,0.00,WeatherDisplay:10.37,2013-02-06 14:05:00,
2013-02-06 09:10:00,26.4,23.0,29.98,NW,312,0.0,0.0,87,0.00,OVC,,0.00,WeatherDisplay:10.37,2013-02-06 14:10:00,
2013-02-06 09:15:00,26.8,23.4,29.98,NW,312,0.0,0.0,87,0.00,OVC,,0.00,WeatherDisplay:10.37,2013-02-06 14:15:00,
2013-02-06 09:20:00,26.0,22.7,29.98,NW,312,0.0,0.0,87,0.00,OVC,,0.00,WeatherDisplay:10.37,2013-02-06 14:20:00,
2013-02-06 09:25:00,26.5,23.2,29.98,NW,312,0.0,0.0,87,0.00,OVC,,0.00,WeatherDisplay:10.37,2013-02-06 14:25:00,
2013-02-06 09:30:00,26.7,23.3,29.98,NW,312,0.0,0.0,87,0.00,OVC,,0.00,WeatherDisplay:10.37,2013-02-06 14:30:00,
2013-02-06 09:35:00,27.1,23.8,29.98,NW,312,0.0,0.0,87,0.00,OVC,,0.00,WeatherDisplay:10.37,2013-02-06 14:35:00,
2013-02-06 09:40:00,27.1,23.7,29.98,NW,312,0.0,0.0,87,0.00,OVC,,0.00,WeatherDisplay:10.37,2013-02-06 14:40:00,
2013-02-06 09:45:00,27.9,24.6,29.98,NW,312,0.0,0.0,87,0.00,OVC,,0.00,WeatherDisplay:10.37,2013-02-06 14:45:00,
2013-02-06 09:50:00,28.4,25.0,29.98,NW,312,0.0,0.0,87,0.00,OVC,,0.00,WeatherDisplay:10.37,2013-02-06 14:50:00,
2013-02-06 09:55:00,29.1,25.7,29.98,NW,305,5.0,9.0,87,0.00,OVC,,0.00,WeatherDisplay:10.37,2013-02-06 14:55:00,
2013-02-06 10:00:00,29.2,25.8,29.98,WNW,292,0.0,9.0,87,0.00,OVC,,0.00,WeatherDisplay:10.37,2013-02-06 15:00:00,
2013-02-06 10:05:00,29.8,26.4,29.98,WNW,294,3.0,9.0,87,0.00,OVC,,0.00,WeatherDisplay:10.37,2013-02-06 15:05:00,
2013-02-06 10:10:00,30.0,26.6,29.98,NW,311,0.0,5.0,87,0.00,OVC,,0.00,WeatherDisplay:10.37,2013-02-06 15:10:00,
2013-02-06 10:15:00,29.9,26.5,29.98,NW,309,0.0,7.0,87,0.00,OVC,,0.00,WeatherDisplay:10.37,2013-02-06 15:15:00,
2013-02-06 10:20:00,30.0,26.6,29.98,NW,309,1.0,9.0,87,0.00,OVC,,0.00,WeatherDisplay:10.37,2013-02-06 15:20:00,
2013-02-06 10:25:00,30.4,27.0,29.98,WNW,298,1.0,9.0,87,0.00,OVC,,0.00,WeatherDisplay:10.37,2013-02-06 15:25:00,
2013-02-06 10:30:00,31.0,27.6,29.98,WNW,287,0.0,6.0,87,0.00,OVC,,0.00,WeatherDisplay:10.37,2013-02-06 15:30:00,
2013-02-06 10:35:00,30.8,26.5,29.98,WNW,292,0.0,10.0,84,0.00,CLR,,0.00,WeatherDisplay:10.37,2013-02-06 15:35:00,
2013-02-06 10:40:00,30.6,26.4,29.99,WNW,288,0.0,8.0,84,0.00,CLR,,0.00,WeatherDisplay:10.37,2013-02-06 15:40:00,
2013-02-06 10:45:00,30.9,26.7,29.99,WNW,299,0.0,10.0,84,0.00,CLR,,0.00,WeatherDisplay:10.37,2013-02-06 15:45:00,
2013-02-06 10:50:00,31.7,27.4,29.99,NW,305,0.0,0.0,84,0.00,CLR,,0.00,WeatherDisplay:10.37,2013-02-06 15:50:00,
2013-02-06 10:55:00,31.9,27.6,29.99,NW,316,2.0,8.0,84,0.00,CLR,,0.00,WeatherDisplay:10.37,2013-02-06 15:55:00,
2013-02-06 11:00:00,31.8,27.5,29.99,NNW,330,0.0,6.0,84,0.00,CLR,,0.00,WeatherDisplay:10.37,2013-02-06 16:00:00,
2013-02-06 11:05:00,31.9,22.6,29.99,NNW,335,1.0,10.0,68,0.00,OVC,,0.00,WeatherDisplay:10.37,2013-02-06 16:05:00,
2013-02-06 11:10:00,32.4,23.0,29.99,NNW,339,0.0,6.0,68,0.00,OVC,,0.00,WeatherDisplay:10.37,2013-02-06 16:10:00,
2013-02-06 11:15:00,31.5,22.2,29.98,NNW,332,0.0,8.0,68,0.00,OVC,,0.00,WeatherDisplay:10.37,2013-02-06 16:15:00,
2013-02-06 11:20:00,31.7,22.3,29.98,NNW,329,0.0,7.0,68,0.00,OVC,,0.00,WeatherDisplay:10.37,2013-02-06 16:20:00,
2013-02-06 11:25:00,31.6,22.2,29.98,NW,319,0.0,10.0,68,0.00,OVC,,0.00,WeatherDisplay:10.37,2013-02-06 16:25:00,
2013-02-06 11:30:00,31.7,22.3,29.98,WNW,303,1.0,6.0,68,0.00,OVC,,0.00,WeatherDisplay:10.37,2013-02-06 16:30:00,
2013-02-06 11:35:00,32.0,22.7,29.98,WNW,298,0.0,6.0,68,0.00,OVC,,0.00,WeatherDisplay:10.37,2013-02-06 16:35:00,
2013-02-06 11:40:00,32.7,23.3,29.98,WNW,300,0.0,12.0,68,0.00,OVC,,0.00,WeatherDisplay:10.37,2013-02-06 16:40:00,
2013-02-06 11:45:00,33.5,24.1,29.98,WNW,298,1.0,10.0,68,0.00,OVC,,0.00,WeatherDisplay:10.37,2013-02-06 16:45:00,
2013-02-06 11:50:00,32.4,23.0,29.98,WNW,292,1.0,11.0,68,0.00,OVC,,0.00,WeatherDisplay:10.37,2013-02-06 16:50:00,
2013-02-06 11:55:00,32.4,23.0,29.98,WNW,291,0.0,9.0,68,0.00,OVC,,0.00,WeatherDisplay:10.37,2013-02-06 16:55:00,
2013-02-06 12:00:00,32.0,22.6,29.98,WNW,298,6.0,10.0,68,0.00,OVC,,0.00,WeatherDisplay:10.37,2013-02-06 17:00:00,
2013-02-06 12:05:00,32.0,16.8,29.98,WNW,294,0.0,5.0,53,0.00,OVC,,0.00,WeatherDisplay:10.37,2013-02-06 17:05:00,
2013-02-06 12:10:00,32.3,17.1,29.97,WNW,302,0.0,6.0,53,0.00,OVC,,0.00,WeatherDisplay:10.37,2013-02-06 17:10:00,
2013-02-06 12:15:00,31.7,16.5,29.97,NW,305,1.0,8.0,53,0.00,OVC,,0.00,WeatherDisplay:10.37,2013-02-06 17:15:00,
2013-02-06 12:20:00,32.0,16.8,29.97,WNW,297,0.0,0.0,53,0.00,OVC,,0.00,WeatherDisplay:10.37,2013-02-06 17:20:00,
2013-02-06 12:25:00,32.3,17.1,29.97,WNW,287,0.0,9.0,53,0.00,OVC,,0.00,WeatherDisplay:10.37,2013-02-06 17:25:00,
2013-02-06 12:30:00,32.0,16.8,29.98,WNW,301,2.0,12.0,53,0.00,OVC,,0.00,WeatherDisplay:10.37,2013-02-06 17:30:00,
2013-02-06 12:35:00,32.2,16.9,29.98,NW,313,2.0,9.0,53,0.00,OVC,,0.00,WeatherDisplay:10.37,2013-02-06 17:35:00,
2013-02-06 12:40:00,32.0,16.8,29.98,NW,323,1.0,10.0,53,0.00,OVC,,0.00,WeatherDisplay:10.37,2013-02-06 17:40:00,
2013-02-06 12:45:00,32.0,16.7,29.98,NNW,336,0.0,10.0,53,0.00,OVC,,0.00,WeatherDisplay:10.37,2013-02-06 17:45:00,
2013-02-06 12:50:00,31.7,16.5,29.98,North,350,0.0,0.0,53,0.00,OVC,,0.00,WeatherDisplay:10.37,2013-02-06 17:50:00,
2013-02-06 12:55:00,31.5,16.3,29.99,North,349,0.0,5.0,53,0.00,OVC,,0.00,WeatherDisplay:10.37,2013-02-06 17:55:00,
2013-02-06 13:00:00,31.4,16.2,29.99,NNW,344,1.0,10.0,53,0.00,OVC,,0.00,WeatherDisplay:10.37,2013-02-06 18:00:00,
2013-02-06 13:05:00,31.3,14.4,29.99,NNW,330,2.0,10.0,49,0.00,OVC,,0.00,WeatherDisplay:10.37,2013-02-06 18:05:00,
2013-02-06 13:10:00,31.5,14.5,29.99,NNW,330,0.0,8.0,49,0.00,OVC,,0.00,WeatherDisplay:10.37,2013-02-06 18:10:00,
2013-02-06 13:15:00,31.6,14.6,29.99,NNW,338,0.0,3.0,49,0.00,OVC,,0.00,WeatherDisplay:10.37,2013-02-06 18:15:00,
2013-02-06 13:20:00,32.2,15.2,29.99,NNW,336,0.0,0.0,49,0.00,OVC,,0.00,WeatherDisplay:10.37,2013-02-06 18:20:00,
2013-02-06 13:25:00,34.1,16.9,29.99,NNW,333,0.0,0.0,49,0.00,OVC,,0.00,WeatherDisplay:10.37,2013-02-06 18:25:00,
2013-02-06 13:30:00,32.8,15.7,29.99,NNW,333,1.0,6.0,49,0.00,OVC,,0.00,WeatherDisplay:10.37,2013-02-06 18:30:00,
2013-02-06 13:35:00,32.5,15.5,29.99,NNW,331,0.0,6.0,49,0.00,OVC,,0.00,WeatherDisplay:10.37,2013-02-06 18:35:00,
2013-02-06 13:45:00,32.9,15.8,29.99,NNW,330,1.0,7.0,49,0.00,OVC,,0.00,WeatherDisplay:10.37,2013-02-06 18:45:00,
2013-02-06 13:50:00,33.1,16.0,29.99,NNW,332,2.0,8.0,49,0.00,OVC,,0.00,WeatherDisplay:10.37,2013-02-06 18:50:00,
2013-02-06 13:55:00,34.5,17.3,29.99,NNW,332,0.0,5.0,49,0.00,OVC,,0.00,WeatherDisplay:10.37,2013-02-06 18:55:00,
2013-02-06 14:00:00,33.4,16.2,29.99,SW,225,0.0,10.0,49,0.00,OVC,,0.00,WeatherDisplay:10.37,2013-02-06 19:00:00,
2013-02-06 14:05:00,32.9,17.6,29.99,SW,233,0.0,12.0,53,0.00,OVC,,0.00,WeatherDisplay:10.37,2013-02-06 19:05:00,
2013-02-06 14:10:00,33.8,18.5,29.99,West,281,1.0,6.0,53,0.00,OVC,,0.00,WeatherDisplay:10.37,2013-02-06 19:10:00,
2013-02-06 14:20:00,32.7,17.4,30.00,WNW,302,1.0,8.0,53,0.00,OVC,,0.00,WeatherDisplay:10.37,2013-02-06 19:20:00,
2013-02-06 14:25:00,33.0,17.7,30.00,NW,304,0.0,3.0,53,0.00,OVC,,0.00,WeatherDisplay:10.37,2013-02-06 19:25:00,
2013-02-06 14:30:00,33.2,17.9,30.00,NW,307,0.0,6.0,53,0.00,OVC,,0.00,WeatherDisplay:10.37,2013-02-06 19:30:00,
2013-02-06 14:35:00,33.2,17.9,30.01,WNW,290,7.0,12.0,53,0.00,OVC,,0.00,WeatherDisplay:10.37,2013-02-06 19:35:00,
2013-02-06 14:40:00,32.9,17.6,30.01,WNW,284,2.0,12.0,53,0.00,OVC,,0.00,WeatherDisplay:10.37,2013-02-06 19:40:00,
2013-02-06 14:50:00,33.1,17.8,30.02,South,173,0.0,7.0,53,0.00,OVC,,0.00,WeatherDisplay:10.37,2013-02-06 19:50:00,
2013-02-06 15:00:00,33.7,18.4,30.02,SSE,168,2.0,8.0,53,0.00,OVC,,0.00,WeatherDisplay:10.37,2013-02-06 20:00:00,
2013-02-06 15:05:00,32.9,11.2,30.02,SSE,151,1.0,7.0,40,0.00,BKN,,0.00,WeatherDisplay:10.37,2013-02-06 20:05:00,
2013-02-06 15:10:00,32.9,11.2,30.02,SSE,159,1.0,7.0,40,0.00,BKN,,0.00,WeatherDisplay:10.37,2013-02-06 20:10:00,
2013-02-06 15:15:00,32.1,10.4,30.02,SSE,155,3.0,10.0,40,0.00,BKN,,0.00,WeatherDisplay:10.37,2013-02-06 20:15:00,
2013-02-06 15:20:00,31.6,10.0,30.02,SSE,151,0.0,8.0,40,0.00,BKN,,0.00,WeatherDisplay:10.37,2013-02-06 20:20:00,
2013-02-06 15:25:00,31.2,9.6,30.03,SSE,157,0.0,5.0,40,0.00,BKN,,0.00,WeatherDisplay:10.37,2013-02-06 20:25:00,
2013-02-06 15:30:00,31.3,9.7,30.03,SSE,165,2.0,8.0,40,0.00,BKN,,0.00,WeatherDisplay:10.37,2013-02-06 20:30:00,
2013-02-06 15:35:00,31.6,10.0,30.03,SSE,150,0.0,3.0,40,0.00,BKN,,0.00,WeatherDisplay:10.37,2013-02-06 20:35:00,
2013-02-06 15:40:00,31.4,9.8,30.03,South,171,1.0,10.0,40,0.00,BKN,,0.00,WeatherDisplay:10.37,2013-02-06 20:40:00,
2013-02-06 15:45:00,31.4,9.8,30.03,South,190,1.0,9.0,40,0.00,BKN,,0.00,WeatherDisplay:10.37,2013-02-06 20:45:00,
2013-02-06 15:50:00,31.2,9.6,30.03,East,91,0.0,3.0,40,0.00,BKN,,0.00,WeatherDisplay:10.37,2013-02-06 20:50:00,
2013-02-06 15:55:00,31.1,9.6,30.04,NE,51,0.0,10.0,40,0.00,BKN,,0.00,WeatherDisplay:10.37,2013-02-06 20:55:00,
2013-02-06 16:00:00,31.2,9.6,30.04,NNE,24,2.0,8.0,40,0.00,BKN,,0.00,WeatherDisplay:10.37,2013-02-06 21:00:00,
2013-02-06 16:05:00,31.3,13.8,30.04,NNE,24,0.0,0.0,48,0.00,CLR,,0.00,WeatherDisplay:10.37,2013-02-06 21:05:00,
2013-02-06 16:10:00,31.0,13.6,30.04,NNE,24,0.0,0.0,48,0.00,CLR,,0.00,WeatherDisplay:10.37,2013-02-06 21:10:00,
2013-02-06 16:15:00,30.8,13.4,30.05,NNE,23,1.0,5.0,48,0.00,CLR,,0.00,WeatherDisplay:10.37,2013-02-06 21:15:00,
2013-02-06 16:20:00,31.1,13.7,30.05,NNE,19,0.0,7.0,48,0.00,CLR,,0.00,WeatherDisplay:10.37,2013-02-06 21:20:00,
2013-02-06 16:25:00,30.8,13.4,30.05,NE,55,0.0,7.0,48,0.00,CLR,,0.00,WeatherDisplay:10.37,2013-02-06 21:25:00,
2013-02-06 16:30:00,30.8,13.4,30.05,East,82,1.0,7.0,48,0.00,CLR,,0.00,WeatherDisplay:10.37,2013-02-06 21:30:00,
2013-02-06 16:35:00,30.6,13.2,30.06,NW,304,2.0,9.0,48,0.00,CLR,,0.00,WeatherDisplay:10.37,2013-02-06 21:35:00,
2013-02-06 16:40:00,30.5,13.1,30.06,WNW,289,0.0,7.0,48,0.00,CLR,,0.00,WeatherDisplay:10.37,2013-02-06 21:40:00,
2013-02-06 16:45:00,30.3,12.9,30.06,NW,308,1.0,14.0,48,0.00,CLR,,0.00,WeatherDisplay:10.37,2013-02-06 21:45:00,
2013-02-06 16:50:00,30.2,12.9,30.06,NNW,329,1.0,10.0,48,0.00,CLR,,0.00,WeatherDisplay:10.37,2013-02-06 21:50:00,
2013-02-06 16:55:00,30.0,12.6,30.07,NNW,336,2.0,10.0,48,0.00,CLR,,0.00,WeatherDisplay:10.37,2013-02-06 21:55:00,
2013-02-06 17:00:00,29.9,12.5,30.07,WNW,302,3.0,12.0,48,0.00,CLR,,0.00,WeatherDisplay:10.37,2013-02-06 22:00:00,
2013-02-06 17:05:00,29.6,8.2,30.07,NW,314,0.0,13.0,40,0.00,BKN,,0.00,WeatherDisplay:10.37,2013-02-06 22:05:00,
2013-02-06 17:10:00,29.3,7.9,30.07,NNW,340,0.0,0.0,40,0.00,BKN,,0.00,WeatherDisplay:10.37,2013-02-06 22:10:00,
2013-02-06 17:15:00,29.4,8.0,30.07,NW,326,1.0,13.0,40,0.00,BKN,,0.00,WeatherDisplay:10.37,2013-02-06 22:15:00,
2013-02-06 17:20:00,29.4,8.0,30.08,NW,322,0.0,6.0,40,0.00,BKN,,0.00,WeatherDisplay:10.37,2013-02-06 22:20:00,
2013-02-06 17:25:00,28.8,7.5,30.08,NNW,328,0.0,0.0,40,0.00,BKN,,0.00,WeatherDisplay:10.37,2013-02-06 22:25:00,
2013-02-06 17:30:00,28.4,7.1,30.08,NNW,330,0.0,0.0,40,0.00,BKN,,0.00,WeatherDisplay:10.37,2013-02-06 22:30:00,
2013-02-06 17:35:00,27.9,6.7,30.08,NNW,330,0.0,0.0,40,0.00,BKN,,0.00,WeatherDisplay:10.37,2013-02-06 22:35:00,
2013-02-06 17:40:00,28.7,7.4,30.09,NW,309,0.0,10.0,40,0.00,BKN,,0.00,WeatherDisplay:10.37,2013-02-06 22:40:00,
2013-02-06 17:45:00,28.2,6.9,30.09,WNW,294,0.0,0.0,40,0.00,BKN,,0.00,WeatherDisplay:10.37,2013-02-06 22:45:00,
2013-02-06 17:50:00,27.9,6.7,30.09,WNW,293,0.0,6.0,40,0.00,BKN,,0.00,WeatherDisplay:10.37,2013-02-06 22:50:00,
2013-02-06 17:55:00,27.8,6.6,30.09,WNW,292,0.0,0.0,40,0.00,BKN,,0.00,WeatherDisplay:10.37,2013-02-06 22:55:00,
2013-02-06 18:00:00,27.7,6.4,30.10,WNW,297,0.0,7.0,40,0.00,BKN,,0.00,WeatherDisplay:10.37,2013-02-06 23:00:00,
2013-02-06 18:05:00,28.0,2.6,30.10,WNW,289,0.0,14.0,33,0.00,CLR,,0.00,WeatherDisplay:10.37,2013-02-06 23:05:00,
2013-02-06 18:10:00,28.0,2.5,30.11,West,277,0.0,6.0,33,0.00,CLR,,0.00,WeatherDisplay:10.37,2013-02-06 23:10:00,
2013-02-06 18:15:00,28.1,2.6,30.11,West,273,1.0,7.0,33,0.00,CLR,,0.00,WeatherDisplay:10.37,2013-02-06 23:15:00,
2013-02-06 18:20:00,28.0,2.5,30.11,WNW,296,0.0,10.0,33,0.00,CLR,,0.00,WeatherDisplay:10.37,2013-02-06 23:20:00,
2013-02-06 18:25:00,27.4,2.0,30.11,NW,311,1.0,6.0,33,0.00,CLR,,0.00,WeatherDisplay:10.37,2013-02-06 23:25:00,
2013-02-06 18:30:00,27.6,2.2,30.12,NW,305,0.0,0.0,33,0.00,CLR,,0.00,WeatherDisplay:10.37,2013-02-06 23:30:00,
2013-02-06 18:35:00,27.6,2.2,30.12,WNW,294,0.0,6.0,33,0.00,CLR,,0.00,WeatherDisplay:10.37,2013-02-06 23:35:00,
2013-02-06 18:40:00,27.4,2.1,30.13,WNW,289,0.0,0.0,33,0.00,CLR,,0.00,WeatherDisplay:10.37,2013-02-06 23:40:00,
2013-02-06 18:45:00,27.3,1.9,30.13,WNW,289,0.0,0.0,33,0.00,CLR,,0.00,WeatherDisplay:10.37,2013-02-06 23:45:00,
2013-02-06 18:50:00,27.3,2.0,30.14,WNW,296,0.0,10.0,33,0.00,CLR,,0.00,WeatherDisplay:10.37,2013-02-06 23:50:00,
2013-02-06 18:55:00,27.5,2.1,30.14,WNW,291,0.0,10.0,33,0.00,CLR,,0.00,WeatherDisplay:10.37,2013-02-06 23:55:00,
2013-02-06 19:00:00,27.2,1.8,30.14,NW,305,1.0,8.0,33,0.00,CLR,,0.00,WeatherDisplay:10.37,2013-02-07 00:00:00,
2013-02-06 19:05:00,27.2,1.8,30.14,NW,313,1.0,12.0,33,0.00,CLR,,0.00,WeatherDisplay:10.37,2013-02-07 00:05:00,
2013-02-06 19:10:00,27.2,1.8,30.15,NNW,345,2.0,11.0,33,0.00,CLR,,0.00,WeatherDisplay:10.37,2013-02-07 00:10:00,
2013-02-06 19:15:00,26.8,1.5,30.15,NNE,12,0.0,7.0,33,0.00,CLR,,0.00,WeatherDisplay:10.37,2013-02-07 00:15:00,
2013-02-06 19:20:00,26.8,1.5,30.15,North,356,2.0,9.0,33,0.00,CLR,,0.00,WeatherDisplay:10.37,2013-02-07 00:20:00,
2013-02-06 19:25:00,26.4,1.1,30.16,WNW,289,0.0,17.0,33,0.00,CLR,,0.00,WeatherDisplay:10.37,2013-02-07 00:25:00,
2013-02-06 19:30:00,26.6,1.3,30.16,South,173,1.0,14.0,33,0.00,CLR,,0.00,WeatherDisplay:10.37,2013-02-07 00:30:00,
2013-02-06 19:35:00,26.6,1.3,30.16,SE,125,0.0,9.0,33,0.00,CLR,,0.00,WeatherDisplay:10.37,2013-02-07 00:35:00,
2013-02-06 19:40:00,26.3,1.0,30.17,SSE,159,0.0,6.0,33,0.00,CLR,,0.00,WeatherDisplay:10.37,2013-02-07 00:40:00,
2013-02-06 19:45:00,26.4,1.1,30.17,SE,145,0.0,10.0,33,0.00,CLR,,0.00,WeatherDisplay:10.37,2013-02-07 00:45:00,
2013-02-06 19:50:00,26.3,1.0,30.17,ESE,112,0.0,9.0,33,0.00,CLR,,0.00,WeatherDisplay:10.37,2013-02-07 00:50:00,
2013-02-06 19:55:00,26.2,1.0,30.17,East,100,0.0,7.0,33,0.00,CLR,,0.00,WeatherDisplay:10.37,2013-02-07 00:55:00,
2013-02-06 20:00:00,25.9,0.7,30.18,East,83,0.0,8.0,33,0.00,CLR,,0.00,WeatherDisplay:10.37,2013-02-07 01:00:00,
2013-02-06 20:05:00,26.0,11.6,30.18,ENE,62,0.0,0.0,54,0.00,CLR,,0.00,WeatherDisplay:10.37,2013-02-07 01:05:00,
2013-02-06 20:10:00,25.9,11.5,30.19,ENE,59,1.0,8.0,54,0.00,CLR,,0.00,WeatherDisplay:10.37,2013-02-07 01:10:00,
2013-02-06 20:15:00,25.5,11.1,30.19,NE,54,0.0,10.0,54,0.00,CLR,,0.00,WeatherDisplay:10.37,2013-02-07 01:15:00,
2013-02-06 20:20:00,25.2,10.9,30.19,NE,51,0.0,0.0,54,0.00,CLR,,0.00,WeatherDisplay:10.37,2013-02-07 01:20:00,
2013-02-06 20:25:00,24.8,10.5,30.19,NE,51,0.0,0.0,54,0.00,CLR,,0.00,WeatherDisplay:10.37,2013-02-07 01:25:00,
2013-02-06 20:30:00,24.8,10.5,30.20,ENE,61,1.0,7.0,54,0.00,CLR,,0.00,WeatherDisplay:10.37,2013-02-07 01:30:00,
2013-02-06 20:35:00,24.7,10.3,30.20,ENE,59,1.0,6.0,54,0.00,CLR,,0.00,WeatherDisplay:10.37,2013-02-07 01:35:00,
2013-02-06 20:40:00,24.4,10.1,30.20,ENE,58,0.0,9.0,54,0.00,CLR,,0.00,WeatherDisplay:10.37,2013-02-07 01:40:00,
2013-02-06 20:45:00,23.9,9.7,30.21,ENE,64,0.0,9.0,54,0.00,CLR,,0.00,WeatherDisplay:10.37,2013-02-07 01:45:00,
2013-02-06 20:50:00,24.1,9.8,30.21,ENE,64,0.0,0.0,54,0.00,CLR,,0.00,WeatherDisplay:10.37,2013-02-07 01:50:00,
2013-02-06 20:55:00,23.9,9.6,30.21,ENE,62,1.0,7.0,54,0.00,CLR,,0.00,WeatherDisplay:10.37,2013-02-07 01:55:00,
2013-02-06 21:00:00,23.6,9.4,30.21,NE,55,0.0,0.0,54,0.00,CLR,,0.00,WeatherDisplay:10.37,2013-02-07 02:00:00,
2013-02-06 21:05:00,23.6,8.5,30.22,NE,51,0.0,0.0,52,0.00,CLR,,0.00,WeatherDisplay:10.37,2013-02-07 02:05:00,
2013-02-06 21:10:00,23.6,8.6,30.22,NE,51,0.0,0.0,52,0.00,CLR,,0.00,WeatherDisplay:10.37,2013-02-07 02:10:00,
2013-02-06 21:15:00,23.3,8.2,30.22,NE,51,0.0,0.0,52,0.00,CLR,,0.00,WeatherDisplay:10.37,2013-02-07 02:15:00,
2013-02-06 21:20:00,23.1,8.0,30.23,NE,56,0.0,8.0,52,0.00,CLR,,0.00,WeatherDisplay:10.37,2013-02-07 02:20:00,
2013-02-06 21:25:00,23.2,8.1,30.23,NE,56,0.0,6.0,52,0.00,CLR,,0.00,WeatherDisplay:10.37,2013-02-07 02:25:00,
2013-02-06 21:30:00,23.0,7.9,30.24,NE,45,0.0,0.0,52,0.00,CLR,,0.00,WeatherDisplay:10.37,2013-02-07 02:30:00,
2013-02-06 21:35:00,22.9,7.9,30.24,NE,53,0.0,7.0,52,0.00,CLR,,0.00,WeatherDisplay:10.37,2013-02-07 02:35:00,
2013-02-06 21:40:00,22.4,7.4,30.24,ENE,60,0.0,9.0,52,0.00,CLR,,0.00,WeatherDisplay:10.37,2013-02-07 02:40:00,
2013-02-06 21:45:00,22.2,7.2,30.25,NE,55,1.0,7.0,52,0.00,CLR,,0.00,WeatherDisplay:10.37,2013-02-07 02:45:00,
2013-02-06 21:50:00,21.9,7.0,30.25,ENE,58,0.0,5.0,52,0.00,CLR,,0.00,WeatherDisplay:10.37,2013-02-07 02:50:00,
2013-02-06 21:55:00,21.7,6.8,30.25,ENE,61,0.0,3.0,52,0.00,CLR,,0.00,WeatherDisplay:10.37,2013-02-07 02:55:00,
2013-02-06 22:00:00,21.6,6.7,30.25,ENE,61,0.0,0.0,52,0.00,CLR,,0.00,WeatherDisplay:10.37,2013-02-07 03:00:00,
2013-02-06 22:05:00,22.0,4.3,30.26,ENE,61,0.0,5.0,46,0.00,CLR,,0.00,WeatherDisplay:10.37,2013-02-07 03:05:00,
2013-02-06 22:10:00,21.7,4.1,30.26,ENE,60,0.0,8.0,46,0.00,CLR,,0.00,WeatherDisplay:10.37,2013-02-07 03:10:00,
2013-02-06 22:15:00,21.4,3.8,30.27,NNE,26,0.0,13.0,46,0.00,CLR,,0.00,WeatherDisplay:10.37,2013-02-07 03:15:00,
2013-02-06 22:20:00,21.4,3.8,30.27,North,358,0.0,0.0,46,0.00,CLR,,0.00,WeatherDisplay:10.37,2013-02-07 03:20:00,
2013-02-06 22:25:00,20.9,3.3,30.27,North,354,0.0,0.0,46,0.00,CLR,,0.00,WeatherDisplay:10.37,2013-02-07 03:25:00,
2013-02-06 22:30:00,20.9,3.4,30.27,North,354,0.0,5.0,46,0.00,CLR,,0.00,WeatherDisplay:10.37,2013-02-07 03:30:00,
2013-02-06 22:35:00,20.7,3.1,30.27,North,355,2.0,8.0,46,0.00,CLR,,0.00,WeatherDisplay:10.37,2013-02-07 03:35:00,
2013-02-06 22:45:00,20.6,3.0,30.27,North,356,0.0,0.0,46,0.00,CLR,,0.00,WeatherDisplay:10.37,2013-02-07 03:45:00,
2013-02-06 22:50:00,20.1,2.6,30.28,North,356,2.0,7.0,46,0.00,CLR,,0.00,WeatherDisplay:10.37,2013-02-07 03:50:00,
2013-02-06 22:55:00,20.1,2.6,30.28,North,356,0.0,0.0,46,0.00,CLR,,0.00,WeatherDisplay:10.37,2013-02-07 03:55:00,
2013-02-06 23:00:00,20.0,2.5,30.28,North,356,1.0,6.0,46,0.00,CLR,,0.00,WeatherDisplay:10.37,2013-02-07 04:00:00,
2013-02-06 23:05:00,20.1,-1.5,30.28,North,355,0.0,0.0,38,0.00,CLR,,0.00,WeatherDisplay:10.37,2013-02-07 04:05:00,
2013-02-06 23:10:00,20.0,-1.5,30.29,North,354,0.0,0.0,38,0.00,CLR,,0.00,WeatherDisplay:10.37,2013-02-07 04:10:00,
2013-02-06 23:15:00,19.5,-2.0,30.30,North,354,0.0,0.0,38,0.00,CLR,,0.00,WeatherDisplay:10.37,2013-02-07 04:15:00,
2013-02-06 23:20:00,19.4,-2.1,30.30,North,354,0.0,0.0,38,0.00,CLR,,0.00,WeatherDisplay:10.37,2013-02-07 04:20:00,
2013-02-06 23:25:00,19.3,-2.2,30.30,North,354,0.0,0.0,38,0.00,CLR,,0.00,WeatherDisplay:10.37,2013-02-07 04:25:00,
2013-02-06 23:30:00,19.3,-2.3,30.30,North,354,0.0,0.0,38,0.00,CLR,,0.00,WeatherDisplay:10.37,2013-02-07 04:30:00,
2013-02-06 23:35:00,18.9,-2.5,30.30,North,354,0.0,0.0,38,0.00,CLR,,0.00,WeatherDisplay:10.37,2013-02-07 04:35:00,
2013-02-06 23:40:00,18.7,-2.7,30.30,North,354,0.0,0.0,38,0.00,CLR,,0.00,WeatherDisplay:10.37,2013-02-07 04:40:00,
2013-02-06 23:45:00,18.7,-2.7,30.30,North,354,0.0,0.0,38,0.00,CLR,,0.00,WeatherDisplay:10.37,2013-02-07 04:45:00,
2013-02-06 23:50:00,18.7,-2.7,30.30,North,354,0.0,0.0,38,0.00,CLR,,0.00,WeatherDisplay:10.37,2013-02-07 04:50:00,
2013-02-06 23:55:00,19.4,-2.1,30.31,North,354,0.0,0.0,38,0.00,CLR,,0.00,WeatherDisplay:10.37,2013-02-07 04:55:00,